Key West, FL

1:35 AM EDT on July 22, 2017 (GMT -0400)
Key West International

Weather History for KEYW - August, 2012

Change the Weather History Date:

Tuesday, August 14, 2012

  Actual Average Record
Temperature  
Mean Temperature 85 °F 85 °F  
Max Temperature 89 °F 90 °F 94 °F (1956)
Min Temperature 81 °F 80 °F 71 °F (1958)
Degree Days  
Heating Degree Days 0 0  
Month to date heating degree days 0 0  
Since 1 June heating degree days 0 0  
Since 1 July heating degree days 0 0  
Cooling Degree Days 20 20  
Month to date cooling degree days 267 280  
Year to date cooling degree days 3016 2865  
Since 1 June cooling degree days 1326 1435  
Growing Degree Days 35 (Base 50)    
Moisture  
Dew Point 75 °F    
Average Humidity 77    
Maximum Humidity 85    
Minimum Humidity 68    
Precipitation  
Precipitation T in 0.17 in 3.06 in (1999)
Month to date precipitation 1.13 2.19  
Year to date precipitation 35.23 20.48  
Snow  
Snow 0.00 in - - ()
Month to date snowfall 0.0  
Since 1 June snowfall 0.0  
Since 1 July snowfall 0.0  
Snow Depth 0.00 in    
Sea Level Pressure  
Sea Level Pressure 30.02 in    
Wind  
Wind Speed 8 mph (ESE)    
Max Wind Speed 17 mph    
Max Gust Speed 23 mph    
Visibility 10 miles    
Events Rain    
T = Trace of Precipitation, MM = Missing Value Source: NWS Daily Summary

Daily Weather History Graph

Daily Weather History Graph

Search for Another Location

Airport or City:

Trip Planner

Search our weather history database for the weather conditions in past years. The results will help you decide how hot, cold, wet, or windy it might be!

Date:

Astronomy

Aug. 14, 2012 Rise Set
Actual Time 7:01 AM EDT 8:01 PM EDT
Civil Twilight 6:37 AM EDT 8:25 PM EDT
Nautical Twilight 6:09 AM EDT 8:53 PM EDT
Astronomical Twilight 5:40 AM EDT 9:22 PM EDT
Moon 4:08 AM EDT (8/14) 5:47 PM EDT (8/14)
Length of Visible Light 13h 47m
Length of Day
13h 00m
Waning Crescent, 10% of the Moon is Illuminated
Aug 14
Waning Crescent
Aug 17
New
Aug 24
First Quarter
Aug 31
Full
Sep 8
Last Quarter

Hourly Weather History & Observations

Time (EDT) Temp. Heat Index Dew Point Humidity Pressure Visibility Wind Dir Wind Speed Gust Speed Precip Events Conditions
12:53 AM 82.9 °F 91.8 °F 77.0 °F 82% 30.05 in 10.0 mi East 10.4 mph - N/A   Partly Cloudy
1:53 AM 82.9 °F 90.2 °F 75.0 °F 77% 30.02 in 10.0 mi ESE 8.1 mph - N/A   Clear
2:53 AM 82.0 °F 89.4 °F 75.9 °F 82% 30.00 in 10.0 mi ENE 3.5 mph - N/A   Partly Cloudy
3:53 AM 82.0 °F 88.6 °F 75.0 °F 79% 29.99 in 10.0 mi East 6.9 mph - N/A   Partly Cloudy
4:53 AM 82.0 °F 87.9 °F 73.9 °F 76% 29.99 in 10.0 mi ESE 8.1 mph - N/A   Partly Cloudy
5:53 AM 82.4 °F 89.5 °F 75.2 °F 79% 30.00 in 10.0 mi SE 9.2 mph - N/A   Scattered Clouds
6:53 AM 82.0 °F 88.6 °F 75.0 °F 79% 30.00 in 10.0 mi ESE 6.9 mph - N/A   Scattered Clouds
7:53 AM 82.0 °F 86.7 °F 72.0 °F 71% 30.02 in 10.0 mi SE 6.9 mph - N/A   Clear
8:53 AM 84.0 °F 92.6 °F 75.9 °F 76% 30.02 in 10.0 mi ESE 8.1 mph - N/A   Clear
9:53 AM 84.0 °F 93.7 °F 77.0 °F 79% 30.04 in 10.0 mi SE 4.6 mph - N/A   Mostly Cloudy
10:22 AM 86.0 °F 95.1 °F 75.2 °F 70% 30.05 in 10.0 mi ESE 9.2 mph - N/A   Scattered Clouds
10:53 AM 86.0 °F 96.0 °F 75.9 °F 72% 30.05 in 10.0 mi ESE 8.1 mph - N/A   Partly Cloudy
11:53 AM 87.1 °F 97.3 °F 75.9 °F 69% 30.06 in 10.0 mi ESE 8.1 mph - N/A   Clear
12:53 PM 88.0 °F 97.5 °F 75.0 °F 65% 30.05 in 10.0 mi ESE 9.2 mph - N/A   Clear
1:53 PM 87.1 °F 96.3 °F 75.0 °F 67% 30.03 in 10.0 mi South 5.8 mph - N/A   Scattered Clouds
2:53 PM 86.0 °F 95.1 °F 75.0 °F 70% 30.02 in 10.0 mi SSE 5.8 mph - N/A   Clear
3:53 PM 87.1 °F 96.3 °F 75.0 °F 67% 30.00 in 10.0 mi SE 4.6 mph - N/A   Clear
4:53 PM 88.0 °F 97.5 °F 75.0 °F 65% 29.98 in 10.0 mi SE 4.6 mph - N/A   Clear
5:53 PM 87.1 °F 96.3 °F 75.0 °F 67% 29.96 in 10.0 mi ESE 6.9 mph - N/A   Clear
6:53 PM 86.0 °F 95.1 °F 75.0 °F 70% 29.96 in 10.0 mi ESE 5.8 mph - N/A   Clear
7:53 PM 84.9 °F 92.1 °F 73.9 °F 69% 29.99 in 10.0 mi East 5.8 mph - N/A   Clear
8:53 PM 84.9 °F 93.3 °F 75.0 °F 72% 30.02 in 10.0 mi ENE 6.9 mph - N/A   Clear
9:53 PM 84.9 °F 93.3 °F 75.0 °F 72% 30.03 in 10.0 mi East 6.9 mph - N/A   Clear
10:22 PM 84.2 °F 92.3 °F 75.2 °F 74% 30.04 in 10.0 mi East 11.5 mph - 0.00 in Rain Light Rain
10:44 PM 84.2 °F 92.3 °F 75.2 °F 74% 30.04 in 10.0 mi ESE 12.7 mph - 0.00 in   Scattered Clouds
10:53 PM 84.0 °F 92.6 °F 75.9 °F 76% 30.04 in 10.0 mi ESE 12.7 mph - 0.00 in   Partly Cloudy
11:53 PM 84.0 °F 92.6 °F 75.9 °F 76% 30.05 in 10.0 mi East 12.7 mph 21.9 mph N/A   Partly Cloudy